Regional Weather Roundup
Issued by NWS

Home | Current Version | Previous Version | Text Only | Print | Product List | Glossary Off
Versions: 1 2 3 4 5 6 7 8 9 10 11 12 13 14 15 16 17 18 19 20 21 22 23 24 25 26 27 28 29 30 31 32 33 34 35 36 37 38 39 40 41 42 43 44 45 46 47 48 49 50

000
ASUS43 KMKX 270300
RWRWI

WISCONSIN REGIONAL WEATHER ROUNDUP
NATIONAL WEATHER SERVICE MILWAUKEE/SULLIVAN WI
1000 PM CDT THU MAY 26 2016

NOTE: "FAIR" INDICATES FEW OR NO CLOUDS BELOW 12,000 FEET WITH NO
SIGNIFICANT WEATHER AND/OR OBSTRUCTIONS TO VISIBILITY.

WIZ001-002-006>008-014>016-023>028-270400-
NORTHWEST WISCONSIN

CITY           SKY/WX    TMP DP  RH WIND       PRES   REMARKS
SUPERIOR ARPT  FOG       47  47 100 CALM      29.86R VSB 1/2
ASHLAND        FOG       51  51 100 NE5       29.84S VSB 1/4
HAYWARD        PTCLDY    62  54  74 CALM      29.84R
SIREN          CLOUDY    63  53  67 CALM      29.84S
CUMBERLAND     CLOUDY    66  54  63 W6        29.85S
RICE LAKE      CLOUDY    67  56  67 CALM      29.86S
CHETEK         CLOUDY    64  56  73 CALM      29.85S
LADYSMITH      CLOUDY    68  55  62 S3        29.87R
EAU CLAIRE     NOT AVBL
MENOMONIE      CLOUDY    69  52  53 SW3       29.84F
NEW RICHMOND   CLOUDY    66  54  66 CALM      29.84S
OSCEOLA        MOCLDY    65  58  78 E3        29.85F
$$

WIZ003>005-009-010-017-018-270400-
NORTH CENTRAL WISCONSIN

CITY           SKY/WX    TMP DP  RH WIND       PRES   REMARKS
MANITOWISH WTR NOT AVBL
ARBOR VITAE    CLOUDY    62  59  90 CALM      29.87R
WOODRUFF       CLOUDY    62  59  90 CALM      29.87R
RHINELANDER    PTCLDY    62  56  80 S3        29.89R
EAGLE RIVER      N/A     62  60  95 CALM      29.88R
LAND O LAKES   CLOUDY    62  61  96 CALM      29.87S
PHILLIPS       MOCLDY    64  59  82 CALM      29.86R
TOMAHAWK       CLOUDY    60  58  91 CALM      29.89R
MEDFORD        CLOUDY    68  57  68 SW5       29.87S
MERRILL        MOCLDY    63  61  94 CALM      29.88R
$$

WIZ029-030-035-036-043>047-270400-
CENTRAL WISCONSIN

CITY           SKY/WX    TMP DP  RH WIND       PRES   REMARKS
WAUSAU         PTCLDY    67  61  81 CALM      29.86R
MOSINEE        CLEAR     64  61  88 CALM      29.89R
MARSHFIELD     PTCLDY    68  58  70 S5        29.87R
STEVENS POINT  CLEAR     61  59  92 CALM      29.89R
WAUPACA        PTCLDY    68  63  83 CALM      29.88R
WAUTOMA        PTCLDY    65  62  90 CALM      29.88S
WISC RAPIDS    PTCLDY    63  58  83 CALM      29.89R
CAMP DOUGLAS   NOT AVBL
$$

WIZ011>013-019>022-031-037>040-048>050-270400-
NORTHEAST WISCONSIN

CITY           SKY/WX    TMP DP  RH WIND       PRES   REMARKS
ANTIGO         CLOUDY    62  58  87 CALM      29.90R
SHAWANO        CLEAR     65  60  83 SW3       29.88R
OCONTO         CLEAR    N/A N/A N/A CALM      29.86S
STURGEON BAY   NOT AVBL
GREEN BAY      CLOUDY    66  60  81 CALM      29.88R
MANITOWOC      NOT AVBL
APPLETON       NOT AVBL
CLINTONVILLE   CLEAR     64  57  77 CALM      29.87R
OSHKOSH        PTCLDY    64  58  80 CALM      29.87R
$$

WIZ032>034-041-042-053>061-270400-
SOUTHWEST WISCONSIN

CITY           SKY/WX    TMP DP  RH WIND       PRES   REMARKS
LA CROSSE      PTCLDY    70  61  73 E5        29.84F
SPARTA         PTCLDY    64  61  89 CALM      29.88R
VIROQUA        PTCLDY    69  61  74 CALM      29.88F
BOSCOBEL       MOCLDY    69  64  84 CALM      29.87R
PRAIRIE DU CHI CLOUDY    69  63  81 CALM      29.86R
PLATTEVILLE    CLOUDY    74  56  52 CALM      29.88R
$$

WIZ056-057-062-063-064-067-068-270400-
SOUTH CENTRAL WISCONSIN

CITY           SKY/WX    TMP DP  RH WIND       PRES   REMARKS
REEDSBURG      CLOUDY    69  62  77 CALM      29.87F
BARABOO/DELLS  CLOUDY    67  59  75 CALM      29.88S
LONE ROCK      NOT AVBL
MINERAL POINT  CLOUDY    73  54  49 CALM      29.89R
MADISON        CLOUDY    67  57  70 CALM      29.88R
MIDDLETON      CLOUDY    69  58  70 CALM      29.88S
WATERTOWN      CLOUDY    68  61  79 CALM      29.88S
MONROE         CLOUDY    73  54  49 CALM      29.90R
JANESVILLE     NOT AVBL
$$

WIZ051-052-058>065-066-070>072-270400-
SOUTHEAST WISCONSIN

CITY           SKY/WX    TMP DP  RH WIND       PRES   REMARKS
MILWAUKEE      PTCLDY    70  60  70 CALM      29.89R
WAUKESHA       CLOUDY    68  55  64 CALM      29.90S
MILWAUKEE/TIMM CLOUDY    72  54  53 CALM      29.89R
RACINE         PTCLDY    70  60  70 S3        29.91R
BURLINGTON     CLOUDY    67  60  77 CALM      29.89S
KENOSHA        CLOUDY    72  63  73 SE3       29.90R
FOND DU LAC    PTCLDY    65  59  81 CALM      29.88R
SHEBOYGAN      PTCLDY    64  59  83 CALM      29.89R
WEST BEND      PTCLDY    68  59  73 CALM      29.89R
JUNEAU         HAZE      69  59  70 CALM      29.89F VSB 3/4
$$

LSZ147-162-270400-
LAKE SUPERIOR

STATION/POSITION TIME  TEMP    WIND        PRES    WAVE
                       AIR SEA DIR/SP/G            HT/PER
                 (UTC) (F)     (DEG/KT/KT) (MB)    (FT/S)
W MID LAKE BUOY  0150   40 38  170/  4/  4 1011.0R   1/ 4
DEVILS ISLAND    0200   48     150/  3/  5 1010.6R
PORT WING        0100   47     300/  5/  6 1010.2R
SAXON HARBOR     0200   50      20/  2/  2 1010.2R
$$

LMZ867-665-643>646-270400-
LAKE MICHIGAN

STATION/POSITION TIME  TEMP    WIND        PRES    WAVE
                       AIR SEA DIR/SP/G            HT/PER
                 (UTC) (F)     (DEG/KT/KT) (MB)    (FT/S)
CHAMBERS ISLAND  0200   62     130/  3/  4 1011.9R
N MID LAKE BUOY  0150   48 45  210/  4/  6 1011.3R   2/ 5
NORTHPORT PIER   0200   61     180/  3/  5 1011.5R
SISTER BAY       0220   60     160/  7/  9   N/A
ALGOMA LAKESHORE 0202             CALM       N/A
KEWAUNEE LAKESHO 0200                      1011.0R
SHEBOYGAN LAKESH 0200   64     200/  5/  5 1011.9R
PORT WASHINGTON  0200   60      CALM  /  3 1012.5R
S MID LAKE BUOY  0150   56 50  160/  8/  8 1011.8R   0
KENOSHA   LAKESH 0200   72     190/  8/ 10 1011.9R
$$

TC  - TEMPERATURE IN CELSIUS
VSB - VISIBILITY IN STATUTE MILES
WCI - WIND CHILL INDEX
HX  - HEAT INDEX




USA.gov is the U.S. government's official web portal to all federal, state and local government web resources and services.